Weather History for Butte, MT

Change the Weather History Date:

Sunday, March 24, 2013

  Actual Average Record
Temperature  
Mean Temperature 19 °F 34 °F  
Max Temperature 32 °F 46 °F 65 °F (2007)
Min Temperature 6 °F 22 °F -20 °F (1965)
Degree Days  
Heating Degree Days 46 31  
Month to date heating degree days 843 832  
Since 1 July heating degree days 7221 7401  
Cooling Degree Days 0 0  
Month to date cooling degree days 0 0  
Year to date cooling degree days 0 0  
Moisture  
Dew Point 5 °F    
Average Humidity 58    
Maximum Humidity 88    
Minimum Humidity 28    
Precipitation  
Precipitation T in 0.03 in 0.28 in (1924)
Month to date precipitation 0.23 0.55  
Year to date precipitation 0.63 1.45  
Sea Level Pressure  
Sea Level Pressure 30.31 in    
Wind  
Wind Speed 4 mph (SSE)    
Max Wind Speed 9 mph    
Max Gust Speed 13 mph    
Visibility 9 miles    
Events Snow    
T = Trace of Precipitation, MM = Missing Value Source: NWS Daily Summary

Daily Weather History Graph

Daily Weather History Graph

Search for Another Location

Airport:

Trip Planner

Search our weather history database for the weather conditions in past years. The results will help you decide how hot, cold, wet, or windy it might be!

Date:

Astronomy

Mar. 24, 2013 Rise Set
Actual Time 7:24 AM MDT 7:48 PM MDT
Civil Twilight 6:54 AM MDT 8:18 PM MDT
Nautical Twilight 6:19 AM MDT 8:53 PM MDT
Astronomical Twilight 5:43 AM MDT 9:30 PM MDT
Moon 5:14 PM MDT (3/24) 5:44 AM MDT (3/24)
Length of Visible Light 13h 23m
Length of Day
12h 23m
Waxing Gibbous, 92% of the Moon is Illuminated
Mar 24
Waxing Gibbous
Mar 27
Full
Apr 2
Last Quarter
Apr 10
New
Apr 18
First Quarter

Hourly Weather History & Observations

Time (MDT) Temp. Windchill Dew Point Humidity Pressure Visibility Wind Dir Wind Speed Gust Speed Precip Events Conditions
12:53 AM 12.9 °F 5.2 °F 7.0 °F 77% 30.35 in 10.0 mi SE 4.6 mph - N/A   Mostly Cloudy
1:53 AM 10.0 °F 1.8 °F 5.0 °F 80% 30.37 in 10.0 mi SE 4.6 mph - N/A   Clear
2:53 AM 8.1 °F -2.0 °F 3.9 °F 83% 30.37 in 10.0 mi SE 5.8 mph - N/A   Clear
3:53 AM 8.1 °F -0.5 °F 3.9 °F 83% 30.37 in 10.0 mi SE 4.6 mph - N/A   Clear
4:53 AM 6.1 °F -2.8 °F 3.0 °F 87% 30.38 in 10.0 mi SE 4.6 mph - N/A   Clear
5:23 AM 6.8 °F -0.1 °F 3.2 °F 85% 30.17 in 10.0 mi ESE 3.5 mph - N/A   Mostly Cloudy
5:41 AM 6.8 °F - 3.2 °F 85% 30.17 in 10.0 mi Calm Calm - N/A   Scattered Clouds
5:53 AM 8.1 °F -0.5 °F 3.9 °F 83% 30.38 in 10.0 mi SSE 4.6 mph - N/A   Scattered Clouds
6:02 AM 8.6 °F 0.1 °F 3.2 °F 79% 30.17 in 10.0 mi South 4.6 mph - N/A   Mostly Cloudy
6:26 AM 8.6 °F - 3.2 °F 79% 30.18 in 3.0 mi Calm Calm - 0.00 in Snow Light Snow
6:53 AM 7.0 °F - 3.9 °F 87% 30.40 in 7.0 mi Calm Calm - 0.00 in   Mostly Cloudy
7:24 AM 6.8 °F - 3.2 °F 85% 30.18 in 7.0 mi Calm Calm - 0.00 in   Overcast
7:38 AM 6.8 °F -0.1 °F 3.2 °F 85% 30.19 in 4.0 mi SE 3.5 mph - 0.00 in   Overcast
7:53 AM 7.0 °F 0.1 °F 3.0 °F 84% 30.42 in 4.0 mi SSE 3.5 mph - 0.00 in   Overcast
8:11 AM 6.8 °F -2.0 °F 3.2 °F 85% 30.19 in 9.0 mi SE 4.6 mph - N/A   Scattered Clouds
8:53 AM 9.0 °F - 5.0 °F 84% 30.42 in 10.0 mi Calm Calm - N/A   Clear
9:53 AM 14.0 °F - 9.0 °F 80% 30.42 in 10.0 mi Calm Calm - N/A   Clear
10:53 AM 18.0 °F - 10.0 °F 71% 30.41 in 10.0 mi Calm Calm - N/A   Clear
11:53 AM 23.0 °F - 9.0 °F 55% 30.39 in 10.0 mi Calm Calm - N/A   Clear
12:53 PM 25.0 °F 19.3 °F 7.0 °F 46% 30.37 in 10.0 mi Variable 4.6 mph - N/A   Clear
1:53 PM 26.1 °F 20.5 °F 3.0 °F 37% 30.37 in 10.0 mi WSW 4.6 mph - N/A   Clear
2:53 PM 28.9 °F 20.4 °F 5.0 °F 36% 30.35 in 10.0 mi NW 9.2 mph - N/A   Clear
3:53 PM 28.0 °F 22.8 °F -0.0 °F 30% 30.34 in 10.0 mi South 4.6 mph - N/A   Clear
4:53 PM 30.0 °F 23.2 °F 1.9 °F 30% 30.34 in 10.0 mi West 6.9 mph - N/A   Clear
5:53 PM 30.2 °F - 1.4 °F 29% 30.13 in 10.0 mi Calm Calm - N/A   Clear
6:53 PM 30.0 °F 26.5 °F 1.9 °F 30% 30.31 in 10.0 mi SSE 3.5 mph - N/A   Clear
7:53 PM 28.0 °F - 1.9 °F 33% 30.30 in 10.0 mi Calm Calm - N/A   Clear
8:53 PM 23.0 °F 15.8 °F 10.9 °F 60% 30.32 in 10.0 mi SSE 5.8 mph - N/A   Clear
9:53 PM 21.9 °F 15.7 °F 7.0 °F 53% 30.31 in 10.0 mi South 4.6 mph - N/A   Clear
10:53 PM 19.0 °F 13.9 °F 7.0 °F 59% 30.31 in 10.0 mi ESE 3.5 mph - N/A   Clear
11:53 PM 16.0 °F 8.8 °F 8.1 °F 71% 30.30 in 10.0 mi ESE 4.6 mph - N/A   Clear